Location: *
(60.1759°S, 155.0663°W)
Time: 12:58:12
(UTC+00:00)

Cosmos 1503 Rocket - Pass Details

Date: 17 September 2019
Orbit: 753 x 790 km, 74.0° (Epoch: 16 October)

Event Time Altitude Azimuth Distance (km) Brightness Sun altitude
Exits shadow 13:34:54 41° 280° (W) 1,112 4.4 -20.7°
Maximum altitude 13:36:23 56° 229° (SW) 930 4.3 -20.5°
Drops below altitude 10° 13:41:39 10° 150° (SSE) 2,356 7.4 -20.0°
Sets 13:44:08 0° 145° (SE) 3,293 8.5 -19.7°
